GW7064 Weather Reports


time (UTC)temp
C
wind
direction
speed
KPH
gust
KPH
rain 1hr
cm
rain 24hr
cm
rain mn
cm
humidity
%
barometer
mb
20260507050756 8 0 0.0 0.0 0.00 0.00 0.00 92 1007.0
20260507050257 8 115 0.0 0.0 0.00 0.00 0.00 91 1006.8
20260507045756 8 191 1.6 4.8 0.00 0.00 0.00 91 1006.8
20260507045256 8 104 1.6 3.2 0.00 0.00 0.00 95 1006.8
20260507044756 8 0 0.0 0.0 0.00 0.00 0.00 94 1007.1
20260507044257 8 82 0.0 0.0 0.00 0.00 0.00 93 1007.0
20260507043756 8 84 0.0 0.0 0.00 0.00 0.00 92 1007.1
20260507043257 8 172 3.2 3.2 0.00 0.00 0.00 92 1007.1
20260507042756 8 158 3.2 3.2 0.00 0.00 0.00 91 1007.0
20260507042256 8 98 0.0 1.6 0.00 0.00 0.00 88 1007.2
20260507041756 8 326 1.6 1.6 0.00 0.00 0.00 89 1007.2
20260507041257 9 286 1.6 4.8 0.00 0.00 0.00 89 1007.0
20260507040756 9 299 6.4 9.7 0.00 0.00 0.00 89 1007.1
20260507040256 9 290 6.4 9.7 0.00 0.00 0.00 88 1007.1
20260507035758 9 296 9.7 17.7 0.00 0.00 0.89 89 1006.9
20260507035256 9 305 11.3 14.5 0.00 0.00 0.89 87 1007.0
20260507034757 9 302 8.0 11.3 0.03 0.00 0.89 89 1007.0
20260507034256 9 305 4.8 9.7 0.03 0.00 0.89 90 1006.9
20260507033757 9 306 4.8 14.5 0.03 0.00 0.89 88 1007.0
20260507033257 9 302 6.4 11.3 0.05 0.00 0.89 88 1007.0
20260507032800 9 297 14.5 14.5 0.08 0.00 0.89 87 1007.1
20260507032256 9 303 12.9 16.1 0.08 0.00 0.86 90 1007.0
20260507031756 9 297 12.9 17.7 0.10 0.00 0.86 90 1006.9
20260507031256 9 307 8.0 12.9 0.10 0.00 0.86 91 1006.9
20260507030758 9 298 9.7 11.3 0.10 0.00 0.86 92 1006.8
20260507030256 10 304 8.0 11.3 0.10 0.00 0.86 91 1006.8
20260507025757 10 304 11.3 14.5 0.08 0.00 0.86 90 1006.9
20260507025256 10 305 8.0 11.3 0.08 0.00 0.84 91 1006.9
20260507024759 10 303 9.7 12.9 0.10 0.00 0.84 91 1006.9
20260507024257 10 300 8.0 9.7 0.05 0.00 0.84 89 1007.1
20260507023757 10 307 8.0 12.9 0.05 0.00 0.79 90 1007.1
20260507023258 10 309 8.0 9.7 0.05 0.00 0.79 91 1007.0
20260507022756 10 309 8.0 11.3 0.05 0.00 0.79 92 1007.0
20260507022257 10 308 9.7 11.3 0.05 0.00 0.74 92 1007.0
20260507021756 10 308 8.0 9.7 0.08 0.00 0.74 91 1007.0
20260507021256 10 308 6.4 11.3 0.08 0.00 0.74 92 1006.7
20260507020757 11 303 6.4 12.9 0.08 0.00 0.71 92 1006.7
20260507020258 11 298 4.8 6.4 0.08 0.00 0.71 92 1006.8
20260507015757 11 306 8.0 11.3 0.08 0.00 0.71 92 1006.8
20260507015258 11 311 6.4 9.7 0.08 0.00 0.69 91 1006.6
20260507014757 11 314 8.0 11.3 0.08 0.00 0.69 92 1006.5
20260507014256 11 316 4.8 6.4 0.08 0.00 0.69 94 1006.6
20260507013757 11 315 1.6 1.6 0.05 0.00 0.66 95 1006.3
20260507013256 11 276 1.6 1.6 0.03 0.00 0.66 96 1006.3
20260507012757 11 250 1.6 3.2 0.03 0.00 0.66 95 1006.3
20260507012256 11 197 1.6 3.2 0.03 0.00 0.64 94 1006.2
20260507011757 12 321 0.0 0.0 0.03 0.00 0.64 95 1006.1
20260507011300 12 305 0.0 1.6 0.03 0.00 0.64 96 1005.9
20260507010757 12 0 0.0 0.0 0.03 0.00 0.64 95 1005.8
20260507010257 12 211 3.2 3.2 0.03 0.00 0.64 95 1005.9
20260507005757 12 286 3.2 4.8 0.03 0.00 0.61 95 1005.7
20260507005256 12 102 0.0 3.2 0.03 0.00 0.61 93 1005.8
20260507004756 12 326 3.2 4.8 0.03 0.00 0.61 93 1005.7
20260507004256 12 286 4.8 6.4 0.03 0.00 0.61 92 1005.7
20260507003756 13 303 4.8 8.0 0.03 0.00 0.61 94 1005.5
20260507003256 13 300 4.8 6.4 0.03 0.00 0.61 95 1005.4
20260507002756 13 294 4.8 6.4 0.03 0.00 0.61 95 1005.3
20260507002256 13 310 4.8 9.7 0.03 0.00 0.61 94 1005.2
20260507001758 14 306 8.0 9.7 0.00 0.00 0.61 94 1005.0
20260507001257 14 306 8.0 11.3 0.00 0.00 0.61 94 1004.8
20260507000756 15 315 9.7 12.9 0.00 0.00 0.61 95 1004.7
20260507000259 14 328 1.6 3.2 0.00 0.00 0.61 97 1004.3
20260506235756 14 54 1.6 1.6 0.00 0.00 0.61 96 1004.2
20260506235257 15 220 1.6 3.2 0.00 0.00 0.61 96 1004.2
20260506234802 15 302 0.0 1.6 0.00 0.00 0.61 96 1004.1
20260506234257 15 0 0.0 0.0 0.00 0.00 0.61 96 1004.1
20260506233757 15 313 0.0 1.6 0.00 0.00 0.61 95 1004.1
20260506233257 15 327 1.6 3.2 0.00 0.00 0.61 96 1004.1
20260506232756 15 337 0.0 1.6 0.00 0.00 0.61 96 1004.1
20260506232256 15 311 1.6 3.2 0.00 0.00 0.61 96 1004.0
20260506231757 15 324 0.0 1.6 0.00 0.00 0.61 96 1004.1
20260506231256 15 53 3.2 3.2 0.00 0.00 0.61 96 1004.0
20260506230757 15 351 3.2 6.4 0.00 0.00 0.61 96 1004.0
20260506230258 15 319 1.6 1.6 0.00 0.00 0.61 95 1004.1
20260506225757 15 306 1.6 3.2 0.00 0.00 0.61 95 1004.0
20260506225256 15 282 1.6 4.8 0.00 0.00 0.61 95 1004.1
20260506224757 15 302 3.2 3.2 0.00 0.00 0.61 95 1004.1
20260506224256 15 351 1.6 4.8 0.00 0.00 0.61 95 1004.1
20260506223756 15 336 3.2 6.4 0.00 0.00 0.61 95 1004.1
20260506223256 15 31 1.6 3.2 0.00 0.00 0.61 95 1004.0
20260506222757 15 25 1.6 3.2 0.00 0.00 0.61 96 1004.0
20260506222256 15 347 3.2 3.2 0.00 0.00 0.61 95 1004.1
20260506221756 15 338 3.2 6.4 0.00 0.00 0.61 95 1004.2
20260506221256 15 326 4.8 8.0 0.00 0.00 0.61 94 1004.2
20260506220757 15 306 3.2 3.2 0.00 0.00 0.61 94 1004.2
20260506220257 15 18 4.8 9.7 0.00 0.00 0.58 95 1004.1
20260506215757 15 302 1.6 3.2 0.00 0.00 0.58 94 1004.2
20260506215257 15 7 0.0 1.6 0.00 0.00 0.58 93 1004.2
20260506214756 15 255 6.4 9.7 0.00 0.00 0.58 93 1004.2
20260506214259 15 301 6.4 8.0 0.00 0.00 0.58 93 1004.2
20260506213758 15 146 3.2 6.4 0.00 0.00 0.58 92 1004.3
20260506213256 15 266 4.8 9.7 0.00 0.00 0.58 93 1004.2
20260506212756 15 357 3.2 4.8 0.00 0.00 0.58 93 1004.2
20260506212256 16 286 4.8 8.0 0.00 0.00 0.58 92 1004.2
20260506211758 16 26 3.2 6.4 0.00 0.00 0.58 93 1004.2
20260506211257 16 26 3.2 4.8 0.00 0.00 0.58 92 1004.2
20260506210757 16 286 1.6 3.2 0.03 0.00 0.58 92 1004.2
20260506210259 16 283 4.8 11.3 0.03 0.00 0.58 91 1004.3
20260506205758 16 355 1.6 1.6 0.03 0.00 0.58 91 1004.2
20260506205257 16 301 1.6 3.2 0.03 0.00 0.58 91 1004.3
20260506204756 16 287 3.2 6.4 0.03 0.00 0.58 91 1004.2
20260506204258 16 309 1.6 3.2 0.03 0.00 0.58 91 1004.2
20260506203757 16 284 3.2 4.8 0.05 0.00 0.58 91 1004.3
20260506203258 16 39 3.2 6.4 0.08 0.00 0.58 92 1004.3
20260506202756 16 314 3.2 6.4 0.08 0.00 0.58 91 1004.3
20260506202256 16 0 1.6 3.2 0.10 0.00 0.61 92 1004.5
20260506201758 16 319 3.2 6.4 0.15 0.00 0.61 94 1004.4
20260506201256 16 333 3.2 4.8 0.15 0.00 0.61 94 1004.5
20260506200756 16 291 1.6 4.8 0.15 0.00 0.61 94 1004.5
20260506200258 16 354 1.6 4.8 0.15 0.00 0.56 94 1004.5
20260506195757 16 339 1.6 3.2 0.15 0.00 0.56 94 1004.5
20260506195256 16 328 0.0 1.6 0.18 0.00 0.56 94 1004.6
20260506194757 16 294 1.6 3.2 0.18 0.00 0.56 95 1004.6
20260506194256 15 20 1.6 4.8 0.18 0.00 0.56 95 1004.6
20260506193758 15 342 3.2 4.8 0.20 0.00 0.53 95 1004.7
20260506193256 15 26 1.6 4.8 0.18 0.00 0.53 95 1004.8
20260506192757 15 136 1.6 3.2 0.18 0.00 0.53 96 1004.8
20260506192256 15 123 3.2 4.8 0.18 0.00 0.53 95 1005.0
20260506191759 15 356 1.6 3.2 0.18 0.00 0.48 94 1005.1
20260506191257 16 22 3.2 6.4 0.18 0.00 0.48 94 1005.1
20260506190756 16 159 0.0 1.6 0.15 0.00 0.43 94 1005.1
20260506190256 16 348 0.0 1.6 0.15 0.00 0.41 94 1005.1
20260506185757 16 320 1.6 1.6 0.15 0.00 0.41 94 1005.1
20260506185257 16 34 1.6 4.8 0.18 0.00 0.38 95 1005.1
20260506184757 16 340 1.6 3.2 0.18 0.00 0.36 95 1005.2
20260506184300 16 340 0.0 1.6 0.18 0.00 0.36 94 1005.3
20260506183756 16 40 3.2 4.8 0.20 0.00 0.33 94 1005.3
20260506183300 16 334 1.6 4.8 0.20 0.00 0.33 94 1005.7
20260506182759 16 52 1.6 3.2 0.20 0.00 0.33 94 1005.7
20260506182257 16 328 1.6 4.8 0.20 0.00 0.30 96 1005.6
20260506181757 16 3 1.6 6.4 0.18 0.00 0.28 94 1005.7
20260506181258 16 336 0.0 3.2 0.18 0.00 0.28 95 1006.1
20260506180757 16 138 1.6 3.2 0.18 0.00 0.25 95 1006.1
20260506180257 16 328 3.2 8.0 0.18 0.00 0.25 93 1006.1
20260506175756 16 290 3.2 4.8 0.18 0.00 0.23 93 1006.2
20260506175258 16 3 1.6 3.2 0.13 0.00 0.23 93 1006.2
20260506174756 16 336 0.0 3.2 0.10 0.00 0.20 93 1006.3
20260506174257 16 62 3.2 4.8 0.10 0.00 0.18 92 1006.4
20260506173757 16 29 1.6 4.8 0.08 0.00 0.15 93 1006.5
20260506173258 16 18 3.2 9.7 0.08 0.00 0.13 91 1006.5
20260506172757 16 44 1.6 4.8 0.08 0.00 0.10 90 1006.5
20260506172257 16 324 1.6 3.2 0.08 0.00 0.10 88 1006.6
20260506171758 16 346 1.6 3.2 0.08 0.00 0.10 89 1006.6
20260506171258 16 312 3.2 4.8 0.05 0.00 0.08 88 1006.5
20260506170757 16 359 3.2 4.8 0.05 0.00 0.08 87 1006.5
20260506170257 17 335 1.6 3.2 0.05 0.00 0.05 86 1006.5
20260506165756 17 303 3.2 6.4 0.03 0.00 0.05 84 1006.6
20260506165256 17 332 3.2 4.8 0.03 0.00 0.05 83 1006.5
20260506164756 17 332 0.0 1.6 0.03 0.00 0.03 82 1006.5
20260506164256 17 333 1.6 3.2 0.03 0.00 0.03 83 1006.5
20260506163756 18 336 3.2 6.4 0.03 0.00 0.03 80 1006.4
20260506163258 18 267 4.8 14.5 0.00 0.00 0.03 77 1006.4
20260506162757 18 306 6.4 11.3 0.00 0.00 0.00 74 1006.5
20260506162256 18 289 6.4 9.7 0.00 0.00 0.00 75 1006.5
20260506161756 18 265 9.7 17.7 0.00 0.00 0.00 74 1006.6
20260506161257 18 261 6.4 11.3 0.00 0.00 0.00 75 1006.6
20260506160757 18 303 1.6 3.2 0.00 0.00 0.00 74 1006.7
20260506160256 18 261 9.7 16.1 0.00 0.00 0.00 74 1006.6
20260506155757 18 262 4.8 14.5 0.00 0.00 0.00 74 1006.7
20260506155258 18 258 4.8 16.1 0.00 0.00 0.00 74 1006.7
20260506154757 18 262 8.0 14.5 0.00 0.00 0.00 74 1006.9
20260506154258 18 303 4.8 6.4 0.00 0.00 0.00 75 1007.0
20260506153801 18 348 3.2 4.8 0.00 0.00 0.00 74 1007.2
20260506153256 18 248 3.2 9.7 0.00 0.00 0.00 75 1007.4
20260506152800 18 276 6.4 14.5 0.00 0.00 0.00 74 1007.4
20260506152256 18 32 4.8 14.5 0.00 0.00 0.00 74 1007.8
20260506151758 18 274 17.7 22.5 0.00 0.00 0.00 74 1007.8
20260506151256 18 314 3.2 11.3 0.00 0.00 0.00 73 1007.7
20260506150758 18 280 9.7 16.1 0.00 0.00 0.00 73 1007.6
20260506150304 18 263 11.3 16.1 0.00 0.00 0.00 74 1007.7
20260506145757 18 351 3.2 11.3 0.00 0.00 0.00 73 1007.6
20260506145257 18 278 4.8 9.7 0.00 0.00 0.00 74 1007.4
20260506144756 18 333 8.0 14.5 0.00 0.00 0.00 74 1007.4
20260506144257 18 259 8.0 17.7 0.00 0.00 0.00 74 1007.3
20260506143756 18 299 3.2 8.0 0.00 0.00 0.00 73 1007.3
20260506143259 18 274 6.4 14.5 0.00 0.00 0.00 73 1007.1
20260506142757 18 291 6.4 12.9 0.00 0.00 0.00 74 1007.3
20260506142258 18 263 6.4 14.5 0.00 0.00 0.00 73 1007.3
20260506141757 17 277 4.8 8.0 0.00 0.00 0.00 74 1007.2
20260506141257 17 152 3.2 3.2 0.00 0.00 0.00 75 1007.0
20260506140757 17 16 3.2 4.8 0.00 0.00 0.00 75 1007.1
20260506140258 17 292 4.8 6.4 0.00 0.00 0.00 75 1007.1
20260506135756 17 292 6.4 6.4 0.00 0.00 0.00 76 1007.2
20260506135257 17 212 4.8 6.4 0.00 0.00 0.00 76 1007.2
20260506134757 17 269 4.8 9.7 0.00 0.00 0.00 77 1007.3
20260506134257 16 262 6.4 8.0 0.00 0.00 0.00 77 1007.3
20260506133757 16 300 4.8 8.0 0.00 0.00 0.00 77 1007.3
20260506133259 16 299 6.4 9.7 0.00 0.00 0.00 77 1007.4
20260506132757 16 316 3.2 3.2 0.00 0.00 0.00 77 1007.6
20260506132257 16 314 3.2 4.8 0.00 0.00 0.00 77 1007.7
20260506131757 16 15 1.6 3.2 0.00 0.00 0.00 77 1007.7
20260506131258 16 277 4.8 8.0 0.00 0.00 0.00 77 1007.9
20260506130757 16 285 3.2 4.8 0.00 0.00 0.00 78 1008.0
20260506130258 16 282 6.4 8.0 0.00 0.00 0.00 78 1008.0
20260506125757 16 288 3.2 6.4 0.00 0.00 0.00 77 1008.0
20260506125256 16 287 4.8 4.8 0.00 0.00 0.00 78 1008.0
20260506124757 16 232 1.6 3.2 0.00 0.00 0.00 78 1007.7
20260506124256 16 306 4.8 6.4 0.00 0.00 0.00 78 1007.6
20260506123757 16 317 3.2 6.4 0.00 0.00 0.00 79 1007.7
20260506123257 16 262 3.2 6.4 0.00 0.00 0.00 78 1007.7
20260506122756 16 289 3.2 4.8 0.00 0.00 0.00 78 1007.7
20260506122257 16 279 1.6 4.8 0.00 0.00 0.00 78 1007.2
20260506121758 16 302 3.2 4.8 0.00 0.00 0.00 79 1007.4
20260506121256 16 264 3.2 6.4 0.00 0.00 0.00 79 1007.4
20260506120757 15 145 0.0 1.6 0.00 0.00 0.00 81 1007.4
20260506120256 15 61 1.6 3.2 0.00 0.00 0.00 81 1007.7
20260506115757 14 309 1.6 3.2 0.00 0.00 0.00 84 1007.8
20260506115259 14 42 3.2 4.8 0.00 0.00 0.00 84 1007.8
20260506114757 14 349 1.6 3.2 0.00 0.00 0.00 84 1007.9
20260506114257 14 255 1.6 3.2 0.00 0.00 0.00 84 1007.9
20260506113759 14 56 0.0 1.6 0.00 0.00 0.00 85 1007.9
20260506113256 13 138 0.0 1.6 0.00 0.00 0.00 86 1007.9
20260506112756 13 54 1.6 4.8 0.00 0.00 0.00 87 1007.9
20260506112256 13 127 1.6 3.2 0.00 0.00 0.00 88 1008.1
20260506111756 13 0 0.0 0.0 0.00 0.00 0.00 89 1008.2
20260506111257 13 0 0.0 0.0 0.00 0.00 0.00 88 1008.1
20260506110756 13 150 0.0 1.6 0.00 0.00 0.00 90 1008.0
20260506110258 12 167 0.0 1.6 0.00 0.00 0.00 89 1008.1
20260506105759 12 255 3.2 4.8 0.00 0.00 0.00 90 1008.1
20260506105258 12 87 1.6 3.2 0.00 0.00 0.00 90 1007.9
20260506104756 12 0 0.0 0.0 0.00 0.00 0.00 91 1008.2
20260506104258 12 140 0.0 1.6 0.00 0.00 0.00 91 1008.3
20260506103758 12 117 0.0 1.6 0.00 0.00 0.00 91 1008.2
20260506103257 12 98 0.0 0.0 0.00 0.00 0.00 91 1008.2
20260506102802 11 143 0.0 1.6 0.00 0.00 0.00 91 1008.2
20260506102256 11 0 0.0 0.0 0.00 0.00 0.00 91 1008.3
20260506101758 11 70 1.6 3.2 0.00 0.00 0.00 91 1008.3
20260506101258 11 70 0.0 1.6 0.00 0.00 0.00 91 1008.4
20260506100757 11 0 0.0 0.0 0.00 0.00 0.00 91 1008.5
20260506100257 11 0 0.0 0.0 0.00 0.00 0.00 91 1008.3
20260506095756 11 77 0.0 1.6 0.00 0.00 0.00 91 1008.2
20260506095257 11 81 0.0 1.6 0.00 0.00 0.00 91 1008.3
20260506094758 11 71 0.0 3.2 0.00 0.00 0.00 91 1008.2
20260506094256 11 56 0.0 1.6 0.00 0.00 0.00 91 1008.3
20260506093757 11 0 0.0 0.0 0.00 0.00 0.00 90 1008.2
20260506093256 11 55 0.0 1.6 0.00 0.00 0.00 90 1008.2
20260506092757 11 78 3.2 3.2 0.00 0.00 0.00 90 1008.1
20260506092257 11 75 0.0 1.6 0.00 0.00 0.00 90 1008.2
20260506091757 12 0 0.0 0.0 0.00 0.00 0.00 89 1008.3
20260506091256 12 60 1.6 3.2 0.00 0.00 0.00 89 1008.1
20260506090757 12 69 0.0 0.0 0.00 0.00 0.00 89 1008.1
20260506090256 12 49 0.0 1.6 0.00 0.00 0.00 89 1008.2
20260506085756 12 77 0.0 1.6 0.00 0.00 0.00 89 1008.0
20260506085256 12 0 0.0 0.0 0.00 0.00 0.00 88 1008.2
20260506084756 12 87 1.6 3.2 0.00 0.00 0.00 88 1008.2
20260506084256 12 0 0.0 0.0 0.00 0.00 0.00 89 1008.2
20260506083756 12 53 0.0 1.6 0.00 0.00 0.00 88 1008.1
20260506083257 12 79 0.0 3.2 0.00 0.00 0.00 88 1008.2
20260506082757 12 103 1.6 3.2 0.00 0.00 0.00 88 1008.3
20260506082257 12 126 0.0 1.6 0.00 0.00 0.00 88 1008.3
20260506081800 12 5 0.0 0.0 0.00 0.00 0.00 88 1008.3
20260506081258 12 81 1.6 3.2 0.00 0.00 0.00 88 1008.4
20260506080756 13 0 0.0 0.0 0.00 0.00 0.00 87 1008.5
20260506080301 13 165 0.0 1.6 0.00 0.00 0.00 87 1008.5
20260506073258 14 84 0.0 1.6 0.00 0.00 0.00 81 1008.4
20260506072756 14 118 0.0 1.6 0.00 0.00 0.00 80 1008.4
20260506072258 15 74 1.6 3.2 0.00 0.00 0.00 80 1008.3
20260506071758 15 83 0.0 1.6 0.00 0.00 0.00 78 1008.4
20260506071256 15 0 0.0 0.0 0.00 0.00 0.00 76 1008.4
20260506070757 16 105 0.0 1.6 0.00 0.00 0.00 74 1008.3
20260506070256 16 282 3.2 4.8 0.00 0.00 0.00 73 1008.3
20260506062256 15 89 3.2 3.2 0.00 0.00 0.00 75 1008.2
20260506061756 16 59 1.6 3.2 0.00 0.00 0.00 74 1008.0
20260506061258 16 96 3.2 3.2 0.00 0.00 0.00 75 1008.1
20260506060756 16 198 1.6 3.2 0.00 0.00 0.00 73 1008.1
20260506060257 16 73 0.0 1.6 0.00 0.00 0.00 72 1008.1
20260506051258 16 71 0.0 1.6 0.00 0.00 0.00 76 1008.2